GALILEO A

Last updated on Fri Dec 19 2025 00:02:10 GMT+0000 (Coordinated Universal Time)

1 67160U 25302A 25352.14606259 -.00000007 00000+0 00000+0 0 9998 2 67160 54.2385 107.2470 0008032 237.4965 122.3848 1.72901431 27
UTC large
Height (km)
Speed (km/s)
/
Latitude / Longitude
Inclination (degrees)
Orbital Period (minutes)
Azimuth
Elevation
Range (km)
Doppler Factor

Next 0 passes for location: London (51.5072 / 0.1276)

Sorry there are no passes over London.